Meath Environmental Platform

Observations for Trim Patrick St

Time AQI Temp °C Hum % Pres Pa CO μg/m³ H₂S μg/m³ NO μg/m³ NO₂ μg/m³ O₃ μg/m³ SO₂ μg/m³ PM1 μg/m³ PM2.5 μg/m³ PM10 μg/m³
Thursday 30 July 2026
14:05 2 25.3 34 68,926 0 0 2.53 10.51 94.55 5.2 2.86 9.04 9.94
14:03 2 25 33 68,918 0 0 2.62 5.14 78.36 6.46 2 7.47 8.22
14:02 2 24.9 34 68,896 0 0 2.57 6.65 77.56 7.09 2 7.45 8.2
14:01 2 24.8 33 68,902 0 0 2.59 9.36 100.85 6.11 2 7.47 8.21
14:00 2 24.8 33 68,882 0 0 2.65 6.86 73.36 7.21 2 8.3 9.13
13:59 2 24.7 34 68,884 0 0 2.51 7.42 88.49 7.11 2 7.4 8.14
13:56 2 24.6 32 68,888 0 0 2.64 3.96 72.52 7.57 2 7.56 8.31
13:55 2 24.7 33 68,898 0 0 2.49 11.85 114.42 7.03 2 8.28 9.11
13:54 2 24.7 33 68,906 0 0 2.53 6.68 73.83 7.37 2 7.49 8.23
13:53 2 24.8 34 68,896 0 0 2.47 8.44 102.54 6.99 2 8.23 9.06
13:52 2 24.8 33 68,910 0 0 2.5 7.86 78.08 7.17 2.86 9.07 9.98
13:51 2 24.7 34 68,930 0 0 2.54 7.84 89.34 6.58 2 7.45 8.19
13:50 2 24.7 34 68,922 0 0 2.46 8.77 103.69 6.27 2 7.42 8.16
13:49 2 24.7 34 68,937 0 0 2.51 8.66 97.26 6.75 2 7.4 8.14
13:48 2 24.6 34 68,930 0 0 2.56 7.24 103.45 6.77 2 7.44 8.18
13:47 2 24.5 34 68,916 0 0 2.56 7.01 83.97 6.15 3.71 9.83 10.81
13:46 2 24.4 33 68,902 0 0 2.66 8.81 97.41 6.12 2.86 9.08 9.99
13:45 2 24.3 33 68,882 0 0 2.66 7.22 103.3 6.09 2.86 9.06 9.97
13:44 2 24.2 33 68,857 0 0 2.64 6.85 80.31 5.61 2 7.5 8.25
13:43 2 24.2 34 68,855 0 0 2.59 7.59 90.9 6.93 2 8.21 9.03